User: anonymous   Login
Location: Unspecified
(0.0000°N, 0.0000°E)
Time: 01:52:40
(UTC+00:00)
Language:

GALILEO 23 (2C9) - Orbit

View from above orbital plane
View from above orbital plane
View from above satellite
View from above satellite

Ground track
Ground track

The orbit is defined by the following mean orbital elements,

1 43566U          26142.10926412 +.00000000 +00000-0 +00000-0 0 00007
2 43566  57.1804 342.4893 0002684 333.4673  26.5384  1.70475765    03
Epoch (UTC): 22 May 2026 02:37:20
Eccentricity: 0.0002684
inclination: 57.1804°
perigee height: 23214 km
apogee height: 23230 km
right ascension of ascending node: 342.4893°
argument of perigee: 333.4673°
revolutions per day: 1.70475765
mean anomaly at epoch: 26.5384°

The dashed part of the orbit path shows where the satellite is in the earth's shadow,  

DLR